Location: Paris
(48.6709°N, 2.3750°E)
Time: 09:38:38
(UTC+02:00)

YUBILEINY - Pass Details

Date: 07 July 2022
Orbit: 1478 x 1509 km, 82.5° (Epoch: 07 August)

Event Time Altitude Azimuth Distance (km) Brightness Sun altitude
Rises 02:52:33 0° 351° (N) 4,653 ? -17.6°
Reaches altitude 10° 02:57:18 10° 14° (NNE) 3,662 ? -17.4°
Maximum altitude 03:02:06 15° 47° (NE) 3,241 ? -17.2°
Drops below altitude 10° 03:06:51 10° 81° (E) 3,641 ? -17.0°
Sets 03:11:29 0° 103° (ESE) 4,611 ? -16.7°
